Location: Buch
(49.7331°N, 12.1098°E)
Time: 15:02:56
(UTC+00:00)

SeaSat 1 - Pass Details

Date: 12 May 2021
Orbit: 744 x 747 km, 108.0° (Epoch: 17 June)

Event Time Altitude Azimuth Distance (km) Brightness Sun altitude
Rises 22:19:04 0° 42° (NE) 3,201 6.2 -21.0°
Reaches altitude 10° 22:22:03 10° 61° (ENE) 2,271 5.1 -21.1°
Enters shadow 22:25:21 18° 103° (ESE) 1,773 4.1 -21.2°
